Dewpoint
61 61 60 60 60 60 60 60 59 60 60 59 58 57 55 55 55 55 54 52 52 52 53 52 51 50 51 52 53 53 52 53 52 51 51 49 47 49 48 48 49 49 50
59 59 59 59 58 58 57 57 57 57 56 54 53 52 51 50 51 50 49 49 49 49 49 49 48 48 49 51 51 50 51 52 51 50 47 46 47 47 47 46 44 43 45
57 56 55 56 56 54 53 53 53 52 51 50 49 48 46 46 45 45 44 45 45 46 47 47 47 47 48 49 48 48 49 48 49 48 46 43 44 45 44 42 40 41 42
55 54 53 53 53 53 51 50 49 49 48 47 45 44 43 42 42 41 42 43 43 43 44 44 44 44 45 46 46 46 46 47 47 47 44 43 43 43 43 40 37 37 36
52 52 51 50 49 49 48 47 45 45 44 43 41 41 41 41 41 41 42 42 42 42 42 41 42 42 41 43 44 44 44 43 45 45 43 42 41 40 40 39 37 35 34
49 48 47 45 45 45 44 44 43 42 41 41 41 41 41 40 43 42 42 41 40 40 40 40 40 40 41 41 43 43 43 43 43 43 43 41 40 40 39 37 34 33 33
44 44 43 43 42 42 41 41 41 41 41 41 40 41 42 43 44 42 41 41 40 40 40 40 39 39 40 39 39 38 38 38 39 40 41 41 40 40 39 37 35 34 35
42 41 41 41 41 40 40 41 41 41 41 41 41 41 42 42 43 42 40 39 39 38 38 39 38 38 38 39 39 38 38 35 34 36 35 37 39 39 39 39 37 32 28
41 41 41 40 40 40 40 41 41 41 41 41 40 40 40 40 42 42 40 38 38 37 36 37 37 37 37 38 38 37 35 34 33 37 37 38 38 39 38 35 33 32 29
41 41 40 40 40 40 40 40 42 41 40 40 40 40 40 39 40 41 40 38 37 36 35 34 34 35 37 38 38 35 34 32 32 32 31 32 33 36 34 32 35 34 32
41 41 41 40 41 40 41 40 40 40 40 39 39 39 38 38 38 40 41 38 37 36 36 35 33 34 35 37 39 35 33 30 31 30 29 29 29 29 29 30 31 35 34
41 41 41 41 39 39 40 39 39 39 39 38 38 37 37 37 38 39 40 40 39 37 36 35 33 32 34 35 36 37 35 32 30 28 28 28 29 30 30 31 30 32 32
40 40 40 39 39 38 38 38 37 37 37 37 37 37 37 36 36 39 40 40 40 39 38 37 34 32 32 33 35 35 36 33 30 28 28 30 31 32 32 32 32 33 33
39 39 39 39 38 37 38 38 37 37 37 38 37 37 37 36 37 37 37 38 39 39 39 37 35 33 31 30 30 33 31 30 29 29 29 29 30 31 30 31 32 32 33
40 39 39 38 38 37 37 37 37 37 38 38 38 38 37 36 36 37 36 35 35 35 35 33 31 30 29 28 28 29 29 29 29 29 30 30 29 29 29 31 31 31 31
36 37 38 38 38 38 38 38 39 39 39 39 39 38 37 38 37 37 38 38 38 37 34 32 31 30 29 29 27 26 27 28 29 30 30 31 30 30 30 30 31 30 29
35 35 35 35 35 36 37 36 35 38 40 40 40 40 40 38 39 39 39 39 39 39 36 33 32 31 30 29 30 30 30 29 34 34 33 33 32 31 30 29 29 29 28
34 35 35 34 35 35 35 35 35 36 36 36 38 40 40 40 40 40 40 40 37 38 36 35 34 33 32 31 31 33 33 32 32 32 33 33 33 32 30 30 29 28 28
33 34 34 35 35 36 36 35 35 35 35 35 36 36 37 39 39 39 39 37 36 35 35 35 34 33 32 32 34 35 34 34 34 33 33 33 33 32 31 30 30 28 28
30 29 32 34 34 34 34 34 34 34 34 34 34 34 34 36 34 35 35 34 34 34 34 35 34 34 33 33 33 34 34 33 33 33 33 33 33 32 30 30 28 29 28
26 26 28 26 28 30 32 33 33 33 33 33 33 34 36 33 33 33 33 33 33 33 34 34 35 35 34 34 33 33 32 33 33 33 33 33 32 31 29 28 28 28 29
24 24 24 24 24 24 27 28 30 31 32 33 32 33 35 34 33 33 33 33 33 33 34 33 34 34 34 33 33 33 33 33 33 32 32 31 31 30 29 28 28 28 28
25 23 23 23 23 24 24 23 25 25 25 26 27 28 31 31 32 32 33 33 33 33 33 33 33 33 34 34 33 33 32 33 33 33 33 31 30 29 29 29 28 27 27
24 21 20 20 21 21 21 21 22 22 23 22 22 23 24 23 23 24 25 27 27 28 30 32 33 32 33 33 33 33 33 33 33 33 33 32 31 30 30 29 29 28 27
24 21 19 19 20 19 19 20 21 21 22 22 21 21 23 22 22 22 21 23 25 26 26 26 27 27 27 27 28 28 29 32 33 32 32 32 32 32 31 30 29 28 28
23 20 19 19 20 20 20 19 21 22 23 22 22 23 23 23 22 22 22 23 24 25 24 23 24 24 24 25 25 24 24 25 27 28 30 32 31 31 31 30 29 29 28
Lifted_Index
-1 -1 -0 0 1 1 1 0 -0 -0 -0 -1 -1 -0 -0 1 1 2 2 3 4 4 5 7 7 7 7 7 7 6 6 6 5 5 4 4 4 3 2 2 3 3 3
-1 -1 -1 -0 -0 -0 -0 -0 -1 -1 -0 -0 0 0 1 2 2 3 4 4 5 6 6 7 7 8 7 7 7 7 7 7 6 6 5 5 4 4 3 3 3 3 3
-1 -1 -1 -1 -1 -1 -1 -1 -1 -0 -0 1 1 1 2 3 4 5 5 6 6 7 7 7 7 7 8 7 7 8 8 7 7 7 6 6 5 5 4 3 3 3 4
-0 -0 -0 -1 -1 -1 -1 -1 -1 -0 0 1 2 2 3 4 5 5 6 6 7 7 7 7 7 7 8 7 7 8 8 8 8 7 7 6 6 5 5 4 3 3 4
0 0 -0 -0 -1 -1 -1 -1 -0 0 1 1 2 2 3 5 5 6 6 7 7 7 7 7 7 7 8 8 8 8 8 8 8 8 8 7 7 6 5 5 4 4 4
0 0 -0 -0 -0 -0 -0 -0 0 1 1 2 2 3 4 5 6 7 7 7 7 7 7 7 7 8 8 9 9 9 9 9 9 9 9 8 8 7 6 5 5 5 5
1 1 1 1 1 1 1 1 2 2 3 3 4 4 5 6 6 7 7 7 7 7 7 7 7 8 9 9 10 10 10 10 11 11 10 10 9 9 8 7 6 6 5
2 2 2 2 2 3 3 3 3 4 4 4 4 5 5 6 6 7 7 7 7 7 7 7 8 8 9 9 10 10 10 11 12 12 12 11 11 10 9 8 7 7 6
2 3 3 3 3 4 4 4 4 4 4 5 5 5 6 6 6 7 7 7 7 7 8 8 8 9 9 10 10 10 10 11 12 12 12 12 11 11 10 9 8 7 7
4 4 4 4 4 4 4 4 4 4 5 5 5 6 5 6 6 7 7 7 7 8 8 9 9 10 10 11 10 10 10 11 12 12 12 12 12 11 11 10 9 8 7
5 5 5 4 4 4 4 4 5 5 5 5 5 5 5 5 6 7 7 7 7 8 8 9 10 11 11 12 12 12 11 12 12 12 12 11 12 12 12 12 11 10 9
5 5 4 4 4 4 4 4 4 4 4 4 4 4 4 5 6 6 7 7 7 8 9 9 10 11 12 12 13 13 12 12 12 12 11 11 12 13 15 15 14 13 12
4 4 4 4 4 4 4 4 4 4 4 4 4 4 4 5 6 6 7 7 7 8 9 9 10 11 11 12 13 13 13 13 13 12 12 13 15 16 17 17 17 16 15
3 3 4 4 4 4 4 4 4 4 4 4 4 4 4 5 5 6 6 7 7 8 8 9 9 10 11 11 12 13 14 15 14 14 14 16 17 18 18 18 18 18 17
3 3 3 4 4 4 4 4 4 4 4 4 4 4 4 4 5 6 6 7 7 8 8 9 9 9 10 10 11 12 14 15 15 16 17 17 18 18 18 18 18 18 17
4 4 4 4 5 5 5 5 5 5 5 5 5 5 5 5 5 6 6 7 7 8 8 8 8 8 9 9 10 11 13 15 16 17 18 18 18 18 18 18 18 18 17
6 6 6 6 6 6 6 5 5 5 6 6 6 6 6 6 6 6 6 7 7 7 8 8 8 8 8 9 9 11 12 14 16 17 18 18 18 18 18 18 18 17 17
6 7 7 7 7 7 7 7 7 7 7 7 7 7 7 7 7 7 7 7 7 7 7 8 8 8 8 9 10 11 12 14 15 17 17 18 18 18 17 17 17 17 17
7 8 8 8 8 8 8 8 8 8 8 8 8 8 8 8 7 7 7 7 7 7 8 8 8 9 9 10 10 11 12 13 14 16 17 18 18 17 17 17 17 17 17
8 9 10 9 9 9 9 9 9 9 9 9 9 9 9 8 8 8 8 8 8 8 8 8 9 9 10 10 11 11 11 12 13 14 16 17 17 17 17 17 17 17 17
10 11 11 11 11 11 11 11 10 10 9 9 9 9 9 9 8 8 8 8 8 8 9 9 9 9 10 11 11 11 10 11 12 13 14 16 16 16 16 17 17 17 17
11 11 12 12 12 12 12 12 12 12 11 10 9 9 9 9 9 9 9 9 9 9 10 10 10 10 11 11 11 11 11 11 11 12 13 14 14 14 14 15 15 16 16
11 11 11 11 11 12 12 12 13 13 12 12 11 11 11 11 11 11 11 11 11 11 12 12 12 12 12 12 12 12 12 11 12 12 12 12 12 13 13 13 13 14 14
10 10 10 10 10 11 11 11 12 12 13 13 13 13 13 13 13 13 13 13 13 14 14 14 14 14 14 14 14 14 13 13 13 13 13 13 12 12 12 12 12 12 12
10 9 9 10 10 10 11 11 11 12 12 13 13 14 14 14 14 14 14 15 15 15 15 15 15 15 15 15 15 15 15 15 15 15 14 14 13 13 12 12 11 11 11
9 9 9 10 10 10 11 11 11 12 12 12 13 13 14 14 14 14 15 15 15 15 15 16 16 16 16 16 16 16 16 15 15 15 15 15 14 13 13 12 12 11 11